TITAN 3C TRANSTAGE DEB, 3494

Orbit data source: Space-Track

TITAN 3C TRANSTAGE DEB, 3494 is space debris in LEO originally from a launch on Fri, 15 Oct 1965 UTC launched from the Air Force Eastern Test Range (AFETR). Debris objects in space refer to the collection of defunct objects orbiting the Earth. Examples of debris include non-operational satellites, rocket bodies, and fragments generated from explosions, collisions, or faulty payload assembly.

Loading next visibility...
Identifier
3494, 1965-082QQ
Orbit
LEO
Country
Flag of USUS
Related business
Manufacturer
Unknown
Mission
Spacecraft
Bus & Motor
Unknown
Mass
Unknown
Launch date (UTC)
1965-10-15 (60 years ago)
Launch vehicle
Unknown
Launch site
Air Force Eastern Test Range (AFETR)
Object type
Payload
Rocket body
Debris
Shape & HBR
Unknown shape, 0.1 m
Radar Cross Section
Small (<0.1 m²)

Expand to show TLE details & history
Last TLE update: 13 hours ago

TLE from 13 hours ago
0 TITAN 3C TRANSTAGE DEB
1 03494U 65082QQ  26063.27734822  .00001126  00000-0  21144-3 0  9998
2 03494  31.8925  32.5060 0027276 248.7406 111.0321 14.61946525190081
Epoch: 2026-03-04T06:39Z
TLE epoch observation values (Epoch: 2026-03-04T06:39:22.886Z)
Latitude
0.00002°
Longitude
130.6163°
Altitude
692.483 km
Speed
7.509 km/s
True Right ascension
02h 10m 01s
True Declination
0° 00' 00"
Sunlit
Object was in daylight at epoch
Visualization orbit readout
Latitude
Unknown
Longitude
Unknown
Altitude
Unknown
Speed
Unknown
Apparent Right ascension
Unknown
Apparent Declination
Unknown
Sunlit
N/A
Visualization observer readout
Local Sidereal Time
23:15:21
Azimuth
Unknown
Elevation
Unknown
Doppler factor
Unknown
Orbital elements
Apogee altitude
709.806 km
Perigee altitude
671.245 km
Semi-major axis
7,068.662 km
Eccentricity
0.00273
Inclination
31.8925°
RAAN
32.506°
Arg. of periapsis
248.7406°
True anomaly
111.32348°
Mean anomaly
111.0321°
Eccentric anomaly
111.17783°
Mean motion
3.65206 °/min
Orbital period
98.57 mins
BSTAR
0.00021144

Documentation

Showing up to 5 results
|